Time,TemperatureF,DewpointF,PressureIn,WindDirection,WindDirectionDegrees,WindSpeedMPH,WindSpeedGustMPH,Humidity,HourlyPrecipIn,Conditions,Clouds,dailyrainin,SolarRadiationWatts/m^2,SoftwareType,DateUTC
2013-12-08 00:00:00,4.7,1.2,30.66,WNW,298,0.0,1.0,85,0.00,,---,0.00,0.00,VWS V14.01,2013-12-08 06:00:00,
2013-12-08 00:01:00,4.7,1.2,30.66,WNW,298,0.0,1.0,85,0.00,,---,0.00,0.00,VWS V14.01,2013-12-08 06:01:00,
2013-12-08 00:06:00,4.7,1.2,30.66,WNW,298,0.0,1.0,85,0.00,,---,0.00,0.00,VWS V14.01,2013-12-08 06:06:00,
2013-12-08 00:11:00,4.7,1.2,30.66,WNW,298,0.0,1.0,85,0.00,,---,0.00,0.00,VWS V14.01,2013-12-08 06:11:00,
2013-12-08 00:16:00,4.8,1.5,30.65,WNW,298,0.0,1.0,86,0.00,,---,0.00,0.00,VWS V14.01,2013-12-08 06:16:00,
2013-12-08 00:21:00,4.9,1.6,30.65,WNW,298,1.0,1.0,86,0.00,,---,0.00,0.00,VWS V14.01,2013-12-08 06:21:00,
2013-12-08 00:26:00,5.0,1.7,30.65,WNW,298,0.0,1.0,86,0.00,,---,0.00,0.00,VWS V14.01,2013-12-08 06:26:00,
2013-12-08 00:31:00,5.2,1.9,30.65,WNW,298,0.0,1.0,86,0.00,,---,0.00,0.00,VWS V14.01,2013-12-08 06:31:00,
2013-12-08 00:36:00,5.3,2.0,30.64,WNW,298,0.0,1.0,86,0.00,,---,0.00,0.00,VWS V14.01,2013-12-08 06:36:00,
2013-12-08 00:41:00,5.4,2.1,30.64,WNW,298,0.0,1.0,86,0.00,,---,0.00,0.00,VWS V14.01,2013-12-08 06:41:00,
2013-12-08 00:46:00,5.4,2.1,30.64,WNW,298,0.0,1.0,86,0.00,,---,0.00,0.00,VWS V14.01,2013-12-08 06:46:00,
2013-12-08 00:51:00,5.6,2.3,30.64,WNW,298,0.0,1.0,86,0.00,,---,0.00,0.00,VWS V14.01,2013-12-08 06:51:00,
2013-12-08 00:56:00,5.7,2.4,30.64,WNW,298,0.0,1.0,86,0.00,,---,0.00,0.00,VWS V14.01,2013-12-08 06:56:00,
2013-12-08 01:00:00,5.8,2.5,30.64,WNW,298,0.0,1.0,86,0.00,,---,0.00,0.00,VWS V14.01,2013-12-08 07:00:00,
2013-12-08 01:01:00,5.8,2.5,30.64,WNW,298,0.0,0.0,86,0.00,,---,0.00,0.00,VWS V14.01,2013-12-08 07:01:00,
2013-12-08 01:06:00,5.8,2.5,30.64,WNW,298,0.0,0.0,86,0.00,,---,0.00,0.00,VWS V14.01,2013-12-08 07:06:00,
2013-12-08 01:11:00,6.0,2.7,30.64,WNW,298,0.0,0.0,86,0.00,,---,0.00,0.00,VWS V14.01,2013-12-08 07:11:00,
2013-12-08 01:16:00,6.0,2.7,30.64,WNW,298,0.0,0.0,86,0.00,,---,0.00,0.00,VWS V14.01,2013-12-08 07:16:00,
2013-12-08 01:21:00,6.2,2.9,30.63,WNW,298,0.0,0.0,86,0.00,,---,0.00,0.00,VWS V14.01,2013-12-08 07:21:00,
2013-12-08 01:26:00,6.3,3.0,30.64,WNW,298,0.0,0.0,86,0.00,,---,0.00,0.00,VWS V14.01,2013-12-08 07:26:00,
2013-12-08 01:31:00,6.4,3.1,30.64,WNW,298,0.0,1.0,86,0.00,,---,0.00,0.00,VWS V14.01,2013-12-08 07:31:00,
2013-12-08 01:36:00,6.5,3.0,30.64,WNW,298,0.0,1.0,85,0.00,,---,0.00,0.00,VWS V14.01,2013-12-08 07:36:00,
2013-12-08 01:41:00,6.6,3.1,30.64,WNW,298,0.0,1.0,85,0.00,,---,0.00,0.00,VWS V14.01,2013-12-08 07:41:00,
2013-12-08 01:46:00,6.8,3.3,30.63,WNW,298,0.0,1.0,85,0.00,,---,0.00,0.00,VWS V14.01,2013-12-08 07:46:00,
2013-12-08 01:51:00,7.0,3.5,30.63,WNW,298,1.0,2.0,85,0.00,,---,0.00,0.00,VWS V14.01,2013-12-08 07:51:00,
2013-12-08 01:56:00,7.3,3.5,30.62,NW,312,1.0,2.0,84,0.00,,---,0.00,0.00,VWS V14.01,2013-12-08 07:56:00,
2013-12-08 02:00:00,7.4,3.3,30.62,NW,312,1.0,2.0,83,0.00,,---,0.00,0.00,VWS V14.01,2013-12-08 08:00:00,
2013-12-08 02:01:00,7.5,3.2,30.61,NW,312,0.0,1.0,82,0.00,,---,0.00,0.00,VWS V14.01,2013-12-08 08:01:00,
2013-12-08 02:06:00,7.6,3.0,30.61,NW,312,1.0,2.0,81,0.00,,---,0.00,0.00,VWS V14.01,2013-12-08 08:06:00,
2013-12-08 02:11:00,7.8,2.9,30.61,NW,321,1.0,2.0,80,0.00,,---,0.00,0.00,VWS V14.01,2013-12-08 08:11:00,
2013-12-08 02:16:00,7.9,2.5,30.61,NNW,333,1.0,2.0,78,0.00,,---,0.00,0.00,VWS V14.01,2013-12-08 08:16:00,
2013-12-08 02:21:00,8.0,2.6,30.60,NNW,333,2.0,2.0,78,0.00,,---,0.00,0.00,VWS V14.01,2013-12-08 08:21:00,
2013-12-08 02:26:00,8.0,2.6,30.60,NNW,335,1.0,2.0,78,0.00,,---,0.00,0.00,VWS V14.01,2013-12-08 08:26:00,
2013-12-08 02:31:00,8.1,2.4,30.60,NNW,334,1.0,2.0,77,0.00,,---,0.00,0.00,VWS V14.01,2013-12-08 08:31:00,
2013-12-08 02:36:00,8.1,2.1,30.60,NE,51,2.0,4.0,76,0.00,,---,0.00,0.00,VWS V14.01,2013-12-08 08:36:00,
2013-12-08 02:41:00,8.1,1.8,30.60,NE,51,2.0,4.0,75,0.00,,---,0.00,0.00,VWS V14.01,2013-12-08 08:41:00,
2013-12-08 02:46:00,8.1,1.8,30.59,NE,51,1.0,4.0,75,0.00,,---,0.00,0.00,VWS V14.01,2013-12-08 08:46:00,
2013-12-08 02:51:00,8.1,1.5,30.59,NE,51,2.0,4.0,74,0.00,,---,0.00,0.00,VWS V14.01,2013-12-08 08:51:00,
2013-12-08 02:56:00,8.1,1.2,30.59,NE,51,1.0,4.0,73,0.00,,---,0.00,0.00,VWS V14.01,2013-12-08 08:56:00,
2013-12-08 03:00:00,8.1,1.2,30.59,NE,51,1.0,4.0,73,0.00,,---,0.00,0.00,VWS V14.01,2013-12-08 09:00:00,
2013-12-08 03:01:00,8.2,1.4,30.59,NE,51,0.0,1.0,73,0.00,,---,0.00,0.00,VWS V14.01,2013-12-08 09:01:00,
2013-12-08 03:06:00,8.2,1.0,30.59,NE,51,1.0,3.0,72,0.00,,---,0.00,0.00,VWS V14.01,2013-12-08 09:06:00,
2013-12-08 03:11:00,8.2,1.0,30.59,NE,51,3.0,4.0,72,0.00,,---,0.00,0.00,VWS V14.01,2013-12-08 09:11:00,
2013-12-08 03:16:00,8.2,0.8,30.58,NE,51,1.0,4.0,71,0.00,,---,0.00,0.00,VWS V14.01,2013-12-08 09:16:00,
2013-12-08 03:21:00,8.3,1.1,30.58,NE,51,2.0,4.0,72,0.00,,---,0.00,0.00,VWS V14.01,2013-12-08 09:21:00,
2013-12-08 03:26:00,8.3,1.1,30.58,NE,51,0.0,4.0,72,0.00,,---,0.00,0.00,VWS V14.01,2013-12-08 09:26:00,
2013-12-08 03:31:00,8.3,1.1,30.58,NE,51,0.0,4.0,72,0.00,,---,0.00,0.00,VWS V14.01,2013-12-08 09:31:00,
2013-12-08 03:36:00,8.3,0.6,30.58,NE,51,2.0,4.0,70,0.00,,---,0.00,0.00,VWS V14.01,2013-12-08 09:36:00,
2013-12-08 03:41:00,8.3,0.6,30.57,NE,51,3.0,4.0,70,0.00,,---,0.00,0.00,VWS V14.01,2013-12-08 09:41:00,
2013-12-08 03:46:00,8.2,0.4,30.56,ENE,67,3.0,5.0,70,0.00,,---,0.00,0.00,VWS V14.01,2013-12-08 09:46:00,
2013-12-08 03:51:00,8.2,0.4,30.56,ENE,67,0.0,5.0,70,0.00,,---,0.00,0.00,VWS V14.01,2013-12-08 09:51:00,
2013-12-08 03:56:00,8.2,0.2,30.56,NE,54,1.0,5.0,69,0.00,,---,0.00,0.00,VWS V14.01,2013-12-08 09:56:00,
2013-12-08 04:00:00,8.2,0.2,30.56,ENE,61,1.0,5.0,69,0.00,,---,0.00,0.00,VWS V14.01,2013-12-08 10:00:00,
2013-12-08 04:01:00,8.1,0.1,30.56,NE,53,2.0,4.0,69,0.00,,---,0.00,0.00,VWS V14.01,2013-12-08 10:01:00,
2013-12-08 04:06:00,8.2,0.2,30.55,ENE,67,2.0,4.0,69,0.00,,---,0.00,0.00,VWS V14.01,2013-12-08 10:06:00,
2013-12-08 04:11:00,8.1,-0.3,30.55,NE,34,3.0,5.0,68,0.00,,---,0.00,0.00,VWS V14.01,2013-12-08 10:11:00,
2013-12-08 04:16:00,8.1,-0.3,30.55,ENE,61,1.0,7.0,68,0.00,,---,0.00,0.00,VWS V14.01,2013-12-08 10:16:00,
2013-12-08 04:21:00,8.1,0.1,30.55,ENE,62,0.0,7.0,69,0.00,,---,0.00,0.00,VWS V14.01,2013-12-08 10:21:00,
2013-12-08 04:26:00,8.1,0.1,30.55,ENE,63,3.0,7.0,69,0.00,,---,0.00,0.00,VWS V14.01,2013-12-08 10:26:00,
2013-12-08 04:31:00,8.2,0.8,30.55,ENE,68,3.0,7.0,71,0.00,,---,0.00,0.00,VWS V14.01,2013-12-08 10:31:00,
2013-12-08 04:36:00,8.2,0.8,30.55,ENE,64,0.0,7.0,71,0.00,,---,0.00,0.00,VWS V14.01,2013-12-08 10:36:00,
2013-12-08 04:41:00,8.3,0.6,30.55,East,87,0.0,7.0,70,0.00,,---,0.00,0.00,VWS V14.01,2013-12-08 10:41:00,
2013-12-08 04:46:00,8.3,0.2,30.55,NE,54,4.0,7.0,69,0.00,,---,0.00,0.00,VWS V14.01,2013-12-08 10:46:00,
2013-12-08 04:50:00,8.2,0.2,30.55,ENE,67,4.0,7.0,69,0.00,,---,0.00,0.00,VWS V14.01,2013-12-08 10:50:00,
2013-12-08 04:55:00,8.1,0.4,30.55,ENE,72,3.0,7.0,70,0.00,,---,0.00,0.00,VWS V14.01,2013-12-08 10:55:00,
2013-12-08 05:00:00,8.1,0.7,30.55,NE,53,1.0,5.0,71,0.00,,---,0.00,0.00,VWS V14.01,2013-12-08 11:00:00,
2013-12-08 05:05:00,8.2,0.8,30.55,NE,46,4.0,7.0,71,0.00,,---,0.00,0.00,VWS V14.01,2013-12-08 11:05:00,
2013-12-08 05:10:00,8.2,1.0,30.55,East,94,5.0,7.0,72,0.00,,---,0.00,0.00,VWS V14.01,2013-12-08 11:10:00,
2013-12-08 05:15:00,8.2,1.0,30.53,ENE,60,4.0,7.0,72,0.00,,---,0.00,0.00,VWS V14.01,2013-12-08 11:15:00,
2013-12-08 05:20:00,8.2,1.4,30.53,ENE,63,4.0,7.0,73,0.00,,---,0.00,0.00,VWS V14.01,2013-12-08 11:20:00,
2013-12-08 05:25:00,8.2,1.4,30.53,NE,53,3.0,8.0,73,0.00,,---,0.00,0.00,VWS V14.01,2013-12-08 11:25:00,
2013-12-08 05:30:00,8.3,1.7,30.53,NE,40,1.0,8.0,74,0.00,,---,0.00,0.00,VWS V14.01,2013-12-08 11:30:00,
2013-12-08 05:35:00,8.3,1.7,30.53,NE,39,2.0,8.0,74,0.00,,---,0.00,0.00,VWS V14.01,2013-12-08 11:35:00,
2013-12-08 05:40:00,8.3,1.7,30.53,NE,56,3.0,8.0,74,0.00,,---,0.00,0.00,VWS V14.01,2013-12-08 11:40:00,
2013-12-08 05:45:00,8.4,1.8,30.52,ENE,64,9.0,9.0,74,0.00,,---,0.00,0.00,VWS V14.01,2013-12-08 11:45:00,
2013-12-08 05:50:00,8.5,1.6,30.53,East,83,0.0,9.0,73,0.00,,---,0.00,0.00,VWS V14.01,2013-12-08 11:50:00,
2013-12-08 05:55:00,8.6,1.7,30.52,East,86,0.0,9.0,73,0.00,,---,0.00,0.00,VWS V14.01,2013-12-08 11:55:00,
2013-12-08 06:00:00,8.6,1.7,30.52,ENE,71,2.0,7.0,73,0.00,,---,0.00,0.00,VWS V14.01,2013-12-08 12:00:00,
2013-12-08 06:05:00,8.5,1.6,30.52,ENE,77,2.0,7.0,73,0.00,,---,0.00,0.00,VWS V14.01,2013-12-08 12:05:00,
2013-12-08 06:10:00,8.5,1.6,30.52,ENE,75,2.0,9.0,73,0.00,,---,0.00,0.00,VWS V14.01,2013-12-08 12:10:00,
2013-12-08 06:15:00,8.5,1.6,30.52,ENE,74,4.0,9.0,73,0.00,,---,0.00,0.00,VWS V14.01,2013-12-08 12:15:00,
2013-12-08 06:20:00,8.5,1.3,30.51,NE,47,4.0,9.0,72,0.00,,---,0.00,0.00,VWS V14.01,2013-12-08 12:20:00,
2013-12-08 06:25:00,8.5,1.3,30.51,ENE,68,5.0,9.0,72,0.00,,---,0.00,0.00,VWS V14.01,2013-12-08 12:25:00,
2013-12-08 06:30:00,8.6,1.1,30.51,East,80,3.0,9.0,71,0.00,,---,0.00,0.00,VWS V14.01,2013-12-08 12:30:00,
2013-12-08 06:35:00,8.6,1.1,30.51,ENE,62,3.0,9.0,71,0.00,,---,0.00,0.00,VWS V14.01,2013-12-08 12:35:00,
2013-12-08 06:40:00,8.6,1.1,30.51,ENE,78,3.0,9.0,71,0.00,,---,0.00,0.00,VWS V14.01,2013-12-08 12:40:00,
2013-12-08 06:45:00,8.7,1.2,30.51,NE,55,1.0,9.0,71,0.00,,---,0.00,0.00,VWS V14.01,2013-12-08 12:45:00,
2013-12-08 06:50:00,8.7,1.2,30.51,NE,52,3.0,9.0,71,0.00,,---,0.00,0.00,VWS V14.01,2013-12-08 12:50:00,
2013-12-08 06:55:00,8.8,1.3,30.50,NE,46,3.0,9.0,71,0.00,,---,0.00,0.00,VWS V14.01,2013-12-08 12:55:00,
2013-12-08 07:00:00,8.8,1.0,30.50,NE,35,2.0,6.0,70,0.00,,---,0.00,0.00,VWS V14.01,2013-12-08 13:00:00,
2013-12-08 07:05:00,8.7,0.9,30.50,NE,34,3.0,8.0,70,0.00,,---,0.00,0.00,VWS V14.01,2013-12-08 13:05:00,
2013-12-08 07:10:00,8.7,0.9,30.50,ENE,57,3.0,8.0,70,0.00,,---,0.00,0.00,VWS V14.01,2013-12-08 13:10:00,
2013-12-08 07:15:00,8.8,1.0,30.49,East,91,6.0,8.0,70,0.00,,---,0.00,0.00,VWS V14.01,2013-12-08 13:15:00,
2013-12-08 07:20:00,8.7,0.9,30.49,NNE,32,4.0,10.0,70,0.00,,---,0.00,0.00,VWS V14.01,2013-12-08 13:20:00,
2013-12-08 07:25:00,8.7,0.9,30.49,NE,53,3.0,10.0,70,0.00,,---,0.00,0.00,VWS V14.01,2013-12-08 13:25:00,
2013-12-08 07:30:00,8.8,1.3,30.49,ENE,70,3.0,10.0,71,0.00,,---,0.00,5.00,VWS V14.01,2013-12-08 13:30:00,
2013-12-08 07:35:00,8.8,1.3,30.48,ENE,75,2.0,10.0,71,0.00,,---,0.00,12.00,VWS V14.01,2013-12-08 13:35:00,
2013-12-08 07:40:00,8.8,1.3,30.48,ENE,76,3.0,10.0,71,0.00,,---,0.00,16.00,VWS V14.01,2013-12-08 13:40:00,
2013-12-08 07:45:00,8.8,1.3,30.48,ENE,78,3.0,10.0,71,0.00,,---,0.00,16.00,VWS V14.01,2013-12-08 13:45:00,
2013-12-08 07:50:00,8.8,1.6,30.48,NE,52,4.0,10.0,72,0.00,,---,0.00,16.00,VWS V14.01,2013-12-08 13:50:00,
2013-12-08 07:55:00,8.7,1.2,30.48,ENE,61,3.0,10.0,71,0.00,,---,0.00,18.00,VWS V14.01,2013-12-08 13:55:00,
2013-12-08 08:00:00,8.8,1.6,30.48,NE,53,2.0,5.0,72,0.00,,---,0.00,21.00,VWS V14.01,2013-12-08 14:00:00,
2013-12-08 08:05:00,8.9,1.7,30.47,ENE,70,3.0,9.0,72,0.00,,---,0.00,28.00,VWS V14.01,2013-12-08 14:05:00,
2013-12-08 08:10:00,8.9,1.7,30.47,ENE,76,4.0,9.0,72,0.00,,---,0.00,32.00,VWS V14.01,2013-12-08 14:10:00,
2013-12-08 08:15:00,8.9,1.7,30.47,NE,36,3.0,9.0,72,0.00,,---,0.00,32.00,VWS V14.01,2013-12-08 14:15:00,
2013-12-08 08:20:00,9.0,1.8,30.47,NE,38,4.0,9.0,72,0.00,,---,0.00,32.00,VWS V14.01,2013-12-08 14:20:00,
2013-12-08 08:25:00,9.0,1.5,30.47,NNE,17,2.0,9.0,71,0.00,,---,0.00,28.00,VWS V14.01,2013-12-08 14:25:00,
2013-12-08 08:30:00,9.1,1.3,30.47,NNE,29,4.0,9.0,70,0.00,,---,0.00,33.00,VWS V14.01,2013-12-08 14:30:00,
2013-12-08 08:35:00,9.1,1.0,30.47,ENE,61,7.0,9.0,69,0.00,,---,0.00,44.00,VWS V14.01,2013-12-08 14:35:00,
2013-12-08 08:40:00,9.1,1.0,30.47,NE,55,1.0,11.0,69,0.00,,---,0.00,49.00,VWS V14.01,2013-12-08 14:40:00,
2013-12-08 08:45:00,9.2,1.4,30.46,East,83,5.0,11.0,70,0.00,,---,0.00,63.00,VWS V14.01,2013-12-08 14:45:00,
2013-12-08 08:50:00,9.3,1.5,30.46,East,84,1.0,11.0,70,0.00,,---,0.00,76.00,VWS V14.01,2013-12-08 14:50:00,
2013-12-08 08:55:00,9.4,1.3,30.46,ENE,77,5.0,11.0,69,0.00,,---,0.00,88.00,VWS V14.01,2013-12-08 14:55:00,
2013-12-08 09:00:00,9.4,1.3,30.45,ENE,76,9.0,9.0,69,0.00,,---,0.00,102.00,VWS V14.01,2013-12-08 15:00:00,
2013-12-08 09:05:00,9.4,1.0,30.45,NNE,28,4.0,11.0,68,0.00,,---,0.00,109.00,VWS V14.01,2013-12-08 15:05:00,
2013-12-08 09:10:00,9.5,1.1,30.45,ENE,71,9.0,13.0,68,0.00,,---,0.00,111.00,VWS V14.01,2013-12-08 15:10:00,
2013-12-08 09:15:00,9.6,1.2,30.45,East,82,1.0,13.0,68,0.00,,---,0.00,100.00,VWS V14.01,2013-12-08 15:15:00,
2013-12-08 09:20:00,9.8,1.4,30.45,East,101,5.0,13.0,68,0.00,,---,0.00,102.00,VWS V14.01,2013-12-08 15:20:00,
2013-12-08 09:25:00,9.9,1.5,30.45,NE,49,6.0,13.0,68,0.00,,---,0.00,104.00,VWS V14.01,2013-12-08 15:25:00,
2013-12-08 09:30:00,9.9,2.1,30.45,East,98,5.0,13.0,70,0.00,,---,0.00,123.00,VWS V14.01,2013-12-08 15:30:00,
2013-12-08 09:35:00,9.9,3.0,30.45,NE,44,3.0,13.0,73,0.00,,---,0.00,141.00,VWS V14.01,2013-12-08 15:35:00,
2013-12-08 09:40:00,9.9,3.9,30.45,NE,49,4.0,13.0,76,0.00,,---,0.00,151.00,VWS V14.01,2013-12-08 15:40:00,
2013-12-08 09:45:00,10.0,4.5,30.45,NE,46,3.0,13.0,78,0.00,,---,0.00,160.00,VWS V14.01,2013-12-08 15:45:00,
2013-12-08 09:50:00,10.3,5.1,30.45,NNE,33,3.0,13.0,79,0.00,,---,0.00,185.00,VWS V14.01,2013-12-08 15:50:00,
2013-12-08 09:55:00,10.5,5.6,30.45,East,79,6.0,13.0,80,0.00,,---,0.00,190.00,VWS V14.01,2013-12-08 15:55:00,
2013-12-08 10:00:00,10.7,5.8,30.45,NE,44,7.0,7.0,80,0.00,,---,0.00,181.00,VWS V14.01,2013-12-08 16:00:00,
2013-12-08 10:05:00,10.7,5.5,30.45,ENE,60,8.0,9.0,79,0.00,,---,0.00,165.00,VWS V14.01,2013-12-08 16:05:00,
2013-12-08 10:10:00,10.5,5.3,30.45,East,94,7.0,9.0,79,0.00,,---,0.00,151.00,VWS V14.01,2013-12-08 16:10:00,
2013-12-08 10:15:00,10.5,5.3,30.45,ENE,60,10.0,10.0,79,0.00,,---,0.00,135.00,VWS V14.01,2013-12-08 16:15:00,
2013-12-08 10:20:00,10.6,5.4,30.44,ENE,68,4.0,10.0,79,0.00,,---,0.00,148.00,VWS V14.01,2013-12-08 16:20:00,
2013-12-08 10:25:00,10.7,5.5,30.44,North,5,3.0,10.0,79,0.00,,---,0.00,135.00,VWS V14.01,2013-12-08 16:25:00,
2013-12-08 10:30:00,10.9,5.9,30.43,East,90,5.0,10.0,80,0.00,,---,0.00,121.00,VWS V14.01,2013-12-08 16:30:00,
2013-12-08 10:35:00,11.0,6.1,30.43,ENE,67,5.0,10.0,80,0.00,,---,0.00,120.00,VWS V14.01,2013-12-08 16:35:00,
2013-12-08 10:40:00,11.2,6.5,30.42,ENE,65,3.0,10.0,81,0.00,,---,0.00,127.00,VWS V14.01,2013-12-08 16:40:00,
2013-12-08 10:45:00,11.3,6.6,30.42,East,92,1.0,10.0,81,0.00,,---,0.00,127.00,VWS V14.01,2013-12-08 16:45:00,
2013-12-08 10:50:00,11.3,6.9,30.41,ENE,61,7.0,10.0,82,0.00,,---,0.00,128.00,VWS V14.01,2013-12-08 16:50:00,
2013-12-08 10:55:00,11.2,6.5,30.41,NE,43,6.0,13.0,81,0.00,,---,0.00,142.00,VWS V14.01,2013-12-08 16:55:00,
2013-12-08 11:00:00,11.2,6.8,30.40,East,82,8.0,12.0,82,0.00,,---,0.00,153.00,VWS V14.01,2013-12-08 17:00:00,
2013-12-08 11:05:00,11.2,6.8,30.40,ENE,65,10.0,12.0,82,0.00,,---,0.00,144.00,VWS V14.01,2013-12-08 17:05:00,
2013-12-08 11:10:00,11.3,7.2,30.39,ENE,70,8.0,12.0,83,0.00,,---,0.00,144.00,VWS V14.01,2013-12-08 17:10:00,
2013-12-08 11:15:00,11.4,7.2,30.39,ENE,68,4.0,12.0,83,0.00,,---,0.00,163.00,VWS V14.01,2013-12-08 17:15:00,
2013-12-08 11:20:00,11.4,7.5,30.39,NNE,33,3.0,12.0,84,0.00,,---,0.00,183.00,VWS V14.01,2013-12-08 17:20:00,
2013-12-08 11:25:00,11.6,8.0,30.38,NNE,33,5.0,12.0,85,0.00,,---,0.00,156.00,VWS V14.01,2013-12-08 17:25:00,
2013-12-08 11:30:00,11.9,8.3,30.38,NE,46,6.0,12.0,85,0.00,,---,0.00,139.00,VWS V14.01,2013-12-08 17:30:00,
2013-12-08 11:35:00,11.9,8.3,30.37,East,90,7.0,12.0,85,0.00,,---,0.00,139.00,VWS V14.01,2013-12-08 17:35:00,
2013-12-08 11:40:00,11.9,8.3,30.37,ENE,61,7.0,12.0,85,0.00,,---,0.00,102.00,VWS V14.01,2013-12-08 17:40:00,
2013-12-08 11:45:00,11.9,8.3,30.36,East,80,6.0,12.0,85,0.00,,---,0.00,98.00,VWS V14.01,2013-12-08 17:45:00,
2013-12-08 11:50:00,12.1,8.5,30.36,ENE,65,8.0,12.0,85,0.00,,---,0.00,93.00,VWS V14.01,2013-12-08 17:50:00,
2013-12-08 11:55:00,12.1,8.5,30.35,East,96,6.0,12.0,85,0.00,,---,0.00,116.00,VWS V14.01,2013-12-08 17:55:00,
2013-12-08 12:00:00,12.1,8.7,30.34,NE,41,4.0,4.0,86,0.00,,---,0.00,127.00,VWS V14.01,2013-12-08 18:00:00,
2013-12-08 12:05:00,12.2,8.6,30.34,NNE,23,3.0,10.0,85,0.00,,---,0.00,109.00,VWS V14.01,2013-12-08 18:05:00,
2013-12-08 12:10:00,12.2,8.6,30.34,NNE,27,4.0,10.0,85,0.00,,---,0.00,100.00,VWS V14.01,2013-12-08 18:10:00,
2013-12-08 12:15:00,12.3,8.9,30.33,East,94,1.0,10.0,86,0.00,,---,0.00,91.00,VWS V14.01,2013-12-08 18:15:00,
2013-12-08 12:20:00,12.5,9.1,30.33,ENE,57,4.0,10.0,86,0.00,,---,0.00,104.00,VWS V14.01,2013-12-08 18:20:00,
2013-12-08 12:25:00,12.6,9.5,30.33,NE,56,1.0,10.0,87,0.00,,---,0.00,109.00,VWS V14.01,2013-12-08 18:25:00,
2013-12-08 12:30:00,12.8,9.7,30.32,ENE,68,4.0,10.0,87,0.00,,---,0.00,104.00,VWS V14.01,2013-12-08 18:30:00,
2013-12-08 12:35:00,13.0,9.9,30.31,East,79,3.0,10.0,87,0.00,,---,0.00,91.00,VWS V14.01,2013-12-08 18:35:00,
2013-12-08 12:40:00,12.9,9.8,30.31,NE,46,8.0,11.0,87,0.00,,---,0.00,95.00,VWS V14.01,2013-12-08 18:40:00,
2013-12-08 12:45:00,12.8,9.7,30.30,ENE,66,7.0,11.0,87,0.00,,---,0.00,97.00,VWS V14.01,2013-12-08 18:45:00,
2013-12-08 12:50:00,13.0,10.1,30.30,NE,38,4.0,11.0,88,0.00,,---,0.00,98.00,VWS V14.01,2013-12-08 18:50:00,
2013-12-08 12:55:00,13.5,10.6,30.30,East,80,5.0,11.0,88,0.00,,---,0.00,86.00,VWS V14.01,2013-12-08 18:55:00,
2013-12-08 13:00:00,13.5,10.6,30.29,ENE,71,3.0,5.0,88,0.00,,---,0.00,102.00,VWS V14.01,2013-12-08 19:00:00,
2013-12-08 13:05:00,13.3,10.4,30.29,NE,48,4.0,8.0,88,0.00,,---,0.00,79.00,VWS V14.01,2013-12-08 19:05:00,
2013-12-08 13:10:00,13.5,10.9,30.28,ENE,59,5.0,9.0,89,0.00,,---,0.00,91.00,VWS V14.01,2013-12-08 19:10:00,
2013-12-08 13:15:00,13.4,10.8,30.28,East,83,1.0,9.0,89,0.00,,---,0.00,84.00,VWS V14.01,2013-12-08 19:15:00,
2013-12-08 13:20:00,13.6,11.0,30.27,ENE,60,4.0,9.0,89,0.00,,---,0.00,95.00,VWS V14.01,2013-12-08 19:20:00,
2013-12-08 13:25:00,13.6,11.0,30.27,East,80,5.0,9.0,89,0.00,,---,0.00,97.00,VWS V14.01,2013-12-08 19:25:00,
2013-12-08 13:30:00,13.8,11.2,30.27,East,91,2.0,9.0,89,0.00,,---,0.00,88.00,VWS V14.01,2013-12-08 19:30:00,
2013-12-08 13:35:00,13.9,11.3,30.26,ENE,62,3.0,9.0,89,0.00,,---,0.00,114.00,VWS V14.01,2013-12-08 19:35:00,
2013-12-08 13:40:00,13.8,11.2,30.26,NE,46,4.0,9.0,89,0.00,,---,0.00,98.00,VWS V14.01,2013-12-08 19:40:00,
2013-12-08 13:45:00,13.8,11.2,30.25,ENE,66,3.0,9.0,89,0.00,,---,0.00,88.00,VWS V14.01,2013-12-08 19:45:00,
2013-12-08 13:50:00,14.3,11.9,30.25,ENE,74,2.0,9.0,90,0.00,,---,0.00,76.00,VWS V14.01,2013-12-08 19:50:00,
2013-12-08 13:55:00,14.6,12.2,30.25,NE,53,3.0,9.0,90,0.00,,---,0.00,70.00,VWS V14.01,2013-12-08 19:55:00,
2013-12-08 14:00:00,14.5,12.1,30.25,East,89,2.0,5.0,90,0.00,,---,0.00,79.00,VWS V14.01,2013-12-08 20:00:00,
2013-12-08 14:05:00,14.3,11.7,30.24,ENE,77,3.0,8.0,89,0.00,,---,0.00,60.00,VWS V14.01,2013-12-08 20:05:00,
2013-12-08 14:10:00,14.4,12.0,30.24,ESE,113,0.0,8.0,90,0.00,,---,0.00,70.00,VWS V14.01,2013-12-08 20:10:00,
2013-12-08 14:15:00,14.5,12.1,30.24,East,82,1.0,8.0,90,0.00,,---,0.00,63.00,VWS V14.01,2013-12-08 20:15:00,
2013-12-08 14:20:00,14.5,12.1,30.23,NE,51,6.0,8.0,90,0.00,,---,0.00,58.00,VWS V14.01,2013-12-08 20:20:00,
2013-12-08 14:25:00,14.3,11.9,30.23,NE,38,3.0,8.0,90,0.00,,---,0.00,58.00,VWS V14.01,2013-12-08 20:25:00,
2013-12-08 14:30:00,14.1,11.5,30.23,NE,45,3.0,8.0,89,0.00,,---,0.00,58.00,VWS V14.01,2013-12-08 20:30:00,
2013-12-08 14:35:00,14.3,11.9,30.22,ENE,66,2.0,8.0,90,0.00,,---,0.00,54.00,VWS V14.01,2013-12-08 20:35:00,
2013-12-08 14:40:00,14.3,11.9,30.22,NE,48,7.0,9.0,90,0.00,,---,0.00,56.00,VWS V14.01,2013-12-08 20:40:00,
2013-12-08 14:45:00,13.9,11.3,30.22,NE,56,3.0,10.0,89,0.00,,---,0.00,63.00,VWS V14.01,2013-12-08 20:45:00,
2013-12-08 14:50:00,14.1,11.7,30.22,East,80,5.0,10.0,90,0.00,,---,0.00,72.00,VWS V14.01,2013-12-08 20:50:00,
2013-12-08 14:55:00,14.1,11.7,30.21,NE,49,8.0,11.0,90,0.00,,---,0.00,69.00,VWS V14.01,2013-12-08 20:55:00,
2013-12-08 15:00:00,14.0,11.6,30.21,ENE,62,7.0,8.0,90,0.00,,---,0.00,69.00,VWS V14.01,2013-12-08 21:00:00,
2013-12-08 15:05:00,14.1,11.7,30.21,East,86,6.0,8.0,90,0.00,,---,0.00,58.00,VWS V14.01,2013-12-08 21:05:00,
2013-12-08 15:10:00,14.2,11.8,30.21,East,82,3.0,10.0,90,0.00,,---,0.00,53.00,VWS V14.01,2013-12-08 21:10:00,
2013-12-08 15:15:00,14.1,11.7,30.21,ENE,77,7.0,10.0,90,0.00,,---,0.00,47.00,VWS V14.01,2013-12-08 21:15:00,
2013-12-08 15:20:00,14.2,11.8,30.21,East,85,3.0,10.0,90,0.00,,---,0.00,39.00,VWS V14.01,2013-12-08 21:20:00,
2013-12-08 15:25:00,14.2,11.8,30.21,ENE,59,3.0,10.0,90,0.00,,---,0.00,28.00,VWS V14.01,2013-12-08 21:25:00,
2013-12-08 15:30:00,14.2,11.8,30.21,ENE,59,1.0,10.0,90,0.00,,---,0.00,23.00,VWS V14.01,2013-12-08 21:30:00,
2013-12-08 15:35:00,14.3,11.9,30.20,ENE,64,0.0,10.0,90,0.00,,---,0.00,26.00,VWS V14.01,2013-12-08 21:35:00,
2013-12-08 15:40:00,14.4,12.0,30.20,NE,47,5.0,10.0,90,0.00,,---,0.00,21.00,VWS V14.01,2013-12-08 21:40:00,
2013-12-08 15:45:00,14.4,12.0,30.20,East,97,3.0,10.0,90,0.00,,---,0.00,18.00,VWS V14.01,2013-12-08 21:45:00,
2013-12-08 15:50:00,14.4,12.0,30.19,ENE,66,5.0,10.0,90,0.00,,---,0.00,18.00,VWS V14.01,2013-12-08 21:50:00,
2013-12-08 15:55:00,14.3,11.9,30.19,ENE,74,3.0,10.0,90,0.00,,---,0.00,16.00,VWS V14.01,2013-12-08 21:55:00,
2013-12-08 16:00:00,14.6,12.5,30.19,ENE,78,2.0,4.0,91,0.00,,---,0.00,12.00,VWS V14.01,2013-12-08 22:00:00,
2013-12-08 16:05:00,14.6,12.2,30.19,NE,40,2.0,4.0,90,0.00,,---,0.00,9.00,VWS V14.01,2013-12-08 22:05:00,
2013-12-08 16:10:00,14.5,12.1,30.19,ENE,71,2.0,4.0,90,0.00,,---,0.00,7.00,VWS V14.01,2013-12-08 22:10:00,
2013-12-08 16:15:00,14.4,12.0,30.18,NE,52,5.0,6.0,90,0.00,,---,0.00,0.00,VWS V14.01,2013-12-08 22:15:00,
2013-12-08 16:20:00,14.3,11.9,30.17,NE,44,1.0,6.0,90,0.00,,---,0.00,0.00,VWS V14.01,2013-12-08 22:20:00,
2013-12-08 16:25:00,14.1,11.7,30.17,NE,53,5.0,8.0,90,0.00,,---,0.00,0.00,VWS V14.01,2013-12-08 22:25:00,
2013-12-08 16:30:00,14.0,11.6,30.17,ENE,61,3.0,8.0,90,0.00,,---,0.00,0.00,VWS V14.01,2013-12-08 22:30:00,
2013-12-08 16:35:00,14.0,11.6,30.17,NE,34,1.0,8.0,90,0.00,,---,0.00,0.00,VWS V14.01,2013-12-08 22:35:00,
2013-12-08 16:40:00,14.1,12.0,30.16,NE,40,2.0,8.0,91,0.00,,---,0.00,0.00,VWS V14.01,2013-12-08 22:40:00,
2013-12-08 16:45:00,14.2,12.1,30.16,ENE,69,0.0,8.0,91,0.00,,---,0.00,0.00,VWS V14.01,2013-12-08 22:45:00,
2013-12-08 16:50:00,14.3,12.2,30.16,NE,54,1.0,8.0,91,0.00,,---,0.00,0.00,VWS V14.01,2013-12-08 22:50:00,
2013-12-08 16:55:00,14.3,11.9,30.16,ENE,59,3.0,8.0,90,0.00,,---,0.00,0.00,VWS V14.01,2013-12-08 22:55:00,
2013-12-08 17:00:00,14.1,11.7,30.16,NE,44,2.0,5.0,90,0.00,,---,0.00,0.00,VWS V14.01,2013-12-08 23:00:00,
2013-12-08 17:05:00,14.0,11.6,30.16,ENE,69,1.0,5.0,90,0.00,,---,0.00,0.00,VWS V14.01,2013-12-08 23:05:00,
2013-12-08 17:10:00,14.0,11.6,30.16,NE,34,2.0,5.0,90,0.00,,---,0.00,0.00,VWS V14.01,2013-12-08 23:10:00,
2013-12-08 17:15:00,14.0,11.6,30.16,NE,51,2.0,6.0,90,0.00,,---,0.00,0.00,VWS V14.01,2013-12-08 23:15:00,
2013-12-08 17:20:00,14.1,11.7,30.15,NE,52,3.0,6.0,90,0.00,,---,0.00,0.00,VWS V14.01,2013-12-08 23:20:00,
2013-12-08 17:25:00,14.1,11.7,30.15,NE,46,0.0,6.0,90,0.00,,---,0.00,0.00,VWS V14.01,2013-12-08 23:25:00,
2013-12-08 17:30:00,14.1,12.0,30.15,NE,46,2.0,6.0,91,0.00,,---,0.00,0.00,VWS V14.01,2013-12-08 23:30:00,
2013-12-08 17:35:00,14.1,11.7,30.14,NE,46,1.0,6.0,90,0.00,,---,0.00,0.00,VWS V14.01,2013-12-08 23:35:00,
2013-12-08 17:40:00,14.1,12.0,30.14,ENE,66,2.0,6.0,91,0.00,,---,0.00,0.00,VWS V14.01,2013-12-08 23:40:00,
2013-12-08 17:45:00,14.1,11.7,30.14,ENE,63,2.0,6.0,90,0.00,,---,0.00,0.00,VWS V14.01,2013-12-08 23:45:00,
2013-12-08 17:50:00,14.1,11.7,30.14,NE,55,3.0,6.0,90,0.00,,---,0.00,0.00,VWS V14.01,2013-12-08 23:50:00,
2013-12-08 17:55:00,14.1,11.7,30.13,ENE,57,3.0,6.0,90,0.00,,---,0.00,0.00,VWS V14.01,2013-12-08 23:55:00,
2013-12-08 18:00:00,14.1,12.0,30.13,ENE,57,2.0,3.0,91,0.00,,---,0.00,0.00,VWS V14.01,2013-12-09 00:00:00,
2013-12-08 18:05:00,14.1,11.7,30.12,NE,46,5.0,5.0,90,0.00,,---,0.00,0.00,VWS V14.01,2013-12-09 00:05:00,
2013-12-08 18:10:00,14.1,11.7,30.12,ENE,62,3.0,5.0,90,0.00,,---,0.00,0.00,VWS V14.01,2013-12-09 00:10:00,
2013-12-08 18:15:00,14.0,11.6,30.12,NE,53,3.0,7.0,90,0.00,,---,0.00,0.00,VWS V14.01,2013-12-09 00:15:00,
2013-12-08 18:20:00,14.0,11.6,30.12,NE,55,2.0,7.0,90,0.00,,---,0.00,0.00,VWS V14.01,2013-12-09 00:20:00,
2013-12-08 18:25:00,14.0,11.6,30.12,NE,55,0.0,7.0,90,0.00,,---,0.00,0.00,VWS V14.01,2013-12-09 00:25:00,
2013-12-08 18:30:00,14.0,11.6,30.12,ENE,59,2.0,7.0,90,0.00,,---,0.00,0.00,VWS V14.01,2013-12-09 00:30:00,
2013-12-08 18:35:00,14.0,11.6,30.12,ENE,61,2.0,7.0,90,0.00,,---,0.00,0.00,VWS V14.01,2013-12-09 00:35:00,
2013-12-08 18:40:00,14.0,11.6,30.12,ENE,61,0.0,7.0,90,0.00,,---,0.00,0.00,VWS V14.01,2013-12-09 00:40:00,
2013-12-08 18:45:00,14.1,12.0,30.13,ENE,61,2.0,7.0,91,0.00,,---,0.00,0.00,VWS V14.01,2013-12-09 00:45:00,
2013-12-08 18:50:00,14.1,12.0,30.12,ENE,61,3.0,7.0,91,0.00,,---,0.00,0.00,VWS V14.01,2013-12-09 00:50:00,
2013-12-08 18:55:00,14.1,12.0,30.12,ENE,61,1.0,7.0,91,0.00,,---,0.00,0.00,VWS V14.01,2013-12-09 00:55:00,
2013-12-08 19:00:00,14.1,12.0,30.12,ENE,61,3.0,3.0,91,0.00,,---,0.00,0.00,VWS V14.01,2013-12-09 01:00:00,
2013-12-08 19:05:00,14.2,12.1,30.12,ENE,61,1.0,3.0,91,0.00,,---,0.00,0.00,VWS V14.01,2013-12-09 01:05:00,
2013-12-08 19:10:00,14.2,12.1,30.12,ENE,61,0.0,3.0,91,0.00,,---,0.00,0.00,VWS V14.01,2013-12-09 01:10:00,
2013-12-08 19:15:00,14.3,12.2,30.12,ENE,61,2.0,3.0,91,0.00,,---,0.00,0.00,VWS V14.01,2013-12-09 01:15:00,
2013-12-08 19:20:00,14.3,12.2,30.12,ENE,61,1.0,3.0,91,0.00,,---,0.00,0.00,VWS V14.01,2013-12-09 01:20:00,
2013-12-08 19:25:00,14.3,12.2,30.12,ENE,71,3.0,4.0,91,0.00,,---,0.00,0.00,VWS V14.01,2013-12-09 01:25:00,
2013-12-08 19:30:00,14.3,12.2,30.11,ENE,71,2.0,4.0,91,0.00,,---,0.00,0.00,VWS V14.01,2013-12-09 01:30:00,
2013-12-08 19:35:00,14.3,12.2,30.11,ENE,71,0.0,4.0,91,0.00,,---,0.00,0.00,VWS V14.01,2013-12-09 01:35:00,
2013-12-08 19:40:00,14.3,12.2,30.11,ENE,71,2.0,4.0,91,0.00,,---,0.00,0.00,VWS V14.01,2013-12-09 01:40:00,
2013-12-08 19:45:00,14.3,12.2,30.11,ENE,65,0.0,4.0,91,0.00,,---,0.00,0.00,VWS V14.01,2013-12-09 01:45:00,
2013-12-08 19:50:00,14.3,12.2,30.11,ENE,65,0.0,4.0,91,0.00,,---,0.00,0.00,VWS V14.01,2013-12-09 01:50:00,
2013-12-08 19:55:00,14.3,12.2,30.10,ENE,65,0.0,4.0,91,0.00,,---,0.00,0.00,VWS V14.01,2013-12-09 01:55:00,
2013-12-08 20:00:00,14.3,12.2,30.10,ENE,65,1.0,1.0,91,0.00,,---,0.00,0.00,VWS V14.01,2013-12-09 02:00:00,
2013-12-08 20:05:00,14.2,12.1,30.10,ENE,65,1.0,2.0,91,0.00,,---,0.00,0.00,VWS V14.01,2013-12-09 02:05:00,
2013-12-08 20:10:00,14.2,12.1,30.10,ENE,60,1.0,2.0,91,0.00,,---,0.00,0.00,VWS V14.01,2013-12-09 02:10:00,
2013-12-08 20:15:00,14.1,12.0,30.10,ENE,60,1.0,2.0,91,0.00,,---,0.00,0.00,VWS V14.01,2013-12-09 02:15:00,
2013-12-08 20:20:00,14.1,11.7,30.10,ENE,60,0.0,2.0,90,0.00,,---,0.00,0.00,VWS V14.01,2013-12-09 02:20:00,
2013-12-08 20:25:00,14.0,11.6,30.10,ENE,60,1.0,2.0,90,0.00,,---,0.00,0.00,VWS V14.01,2013-12-09 02:25:00,
2013-12-08 20:30:00,14.0,11.6,30.09,NE,44,1.0,3.0,90,0.00,,---,0.00,0.00,VWS V14.01,2013-12-09 02:30:00,
2013-12-08 20:35:00,14.0,11.6,30.09,NE,44,0.0,3.0,90,0.00,,---,0.00,0.00,VWS V14.01,2013-12-09 02:35:00,
2013-12-08 20:40:00,13.9,11.5,30.08,NE,44,1.0,3.0,90,0.00,,---,0.00,0.00,VWS V14.01,2013-12-09 02:40:00,
2013-12-08 20:45:00,13.9,11.5,30.08,NE,44,1.0,3.0,90,0.00,,---,0.00,0.00,VWS V14.01,2013-12-09 02:45:00,
2013-12-08 20:50:00,13.7,11.3,30.08,NE,44,0.0,3.0,90,0.00,,---,0.00,0.00,VWS V14.01,2013-12-09 02:50:00,
2013-12-08 20:55:00,13.6,11.2,30.08,NE,44,0.0,3.0,90,0.00,,---,0.00,0.00,VWS V14.01,2013-12-09 02:55:00,
2013-12-08 21:00:00,13.6,11.2,30.08,NE,44,0.0,1.0,90,0.00,,---,0.00,0.00,VWS V14.01,2013-12-09 03:00:00,
2013-12-08 21:05:00,13.5,11.1,30.08,NE,44,0.0,1.0,90,0.00,,---,0.00,0.00,VWS V14.01,2013-12-09 03:05:00,
2013-12-08 21:10:00,13.5,11.1,30.08,NE,44,0.0,1.0,90,0.00,,---,0.00,0.00,VWS V14.01,2013-12-09 03:10:00,
2013-12-08 21:15:00,13.4,11.0,30.07,NE,44,0.0,1.0,90,0.00,,---,0.00,0.00,VWS V14.01,2013-12-09 03:15:00,
2013-12-08 21:20:00,13.3,10.9,30.08,NE,44,0.0,1.0,90,0.00,,---,0.00,0.00,VWS V14.01,2013-12-09 03:20:00,
2013-12-08 21:25:00,13.2,10.8,30.08,NE,44,0.0,1.0,90,0.00,,---,0.00,0.00,VWS V14.01,2013-12-09 03:25:00,
2013-12-08 21:30:00,13.2,10.8,30.08,NE,44,0.0,1.0,90,0.00,,---,0.00,0.00,VWS V14.01,2013-12-09 03:30:00,
2013-12-08 21:35:00,13.2,10.8,30.08,NE,44,0.0,1.0,90,0.00,,---,0.00,0.00,VWS V14.01,2013-12-09 03:35:00,
2013-12-08 21:40:00,13.2,10.8,30.07,NE,44,0.0,1.0,90,0.00,,---,0.00,0.00,VWS V14.01,2013-12-09 03:40:00,
2013-12-08 21:45:00,13.2,10.8,30.07,NE,44,0.0,1.0,90,0.00,,---,0.00,0.00,VWS V14.01,2013-12-09 03:45:00,
2013-12-08 21:50:00,13.2,11.1,30.06,NE,44,0.0,1.0,91,0.00,,---,0.00,0.00,VWS V14.01,2013-12-09 03:50:00,
2013-12-08 21:55:00,13.2,11.1,30.06,NE,44,0.0,1.0,91,0.00,,---,0.00,0.00,VWS V14.01,2013-12-09 03:55:00,
2013-12-08 22:00:00,13.3,11.2,30.06,NE,44,0.0,0.0,91,0.00,,---,0.00,0.00,VWS V14.01,2013-12-09 04:00:00,
2013-12-08 22:05:00,13.3,11.2,30.06,NE,44,0.0,1.0,91,0.00,,---,0.00,0.00,VWS V14.01,2013-12-09 04:05:00,
2013-12-08 22:10:00,13.4,11.3,30.05,NE,44,0.0,1.0,91,0.00,,---,0.00,0.00,VWS V14.01,2013-12-09 04:10:00,
2013-12-08 22:15:00,13.4,11.3,30.05,NE,42,0.0,3.0,91,0.00,,---,0.00,0.00,VWS V14.01,2013-12-09 04:15:00,
2013-12-08 22:20:00,13.4,11.3,30.05,NE,42,0.0,3.0,91,0.00,,---,0.00,0.00,VWS V14.01,2013-12-09 04:20:00,
2013-12-08 22:25:00,13.5,11.4,30.05,NE,42,0.0,3.0,91,0.00,,---,0.00,0.00,VWS V14.01,2013-12-09 04:25:00,
2013-12-08 22:30:00,13.5,11.4,30.06,NE,42,0.0,3.0,91,0.00,,---,0.00,0.00,VWS V14.01,2013-12-09 04:30:00,
2013-12-08 22:35:00,13.5,11.4,30.06,NE,42,0.0,3.0,91,0.00,,---,0.00,0.00,VWS V14.01,2013-12-09 04:35:00,
2013-12-08 22:40:00,13.5,11.4,30.05,NE,42,0.0,3.0,91,0.00,,---,0.00,0.00,VWS V14.01,2013-12-09 04:40:00,
2013-12-08 22:45:00,13.5,11.4,30.05,NE,42,1.0,3.0,91,0.00,,---,0.00,0.00,VWS V14.01,2013-12-09 04:45:00,
2013-12-08 22:50:00,13.4,11.3,30.05,NNE,30,0.0,4.0,91,0.00,,---,0.00,0.00,VWS V14.01,2013-12-09 04:50:00,
2013-12-08 22:55:00,13.4,11.3,30.05,NNE,29,1.0,4.0,91,0.00,,---,0.00,0.00,VWS V14.01,2013-12-09 04:55:00,
2013-12-08 23:00:00,13.4,11.3,30.05,NNE,29,0.0,2.0,91,0.00,,---,0.00,0.00,VWS V14.01,2013-12-09 05:00:00,
2013-12-08 23:01:00,13.4,11.3,30.05,NNE,29,1.0,2.0,91,0.00,,---,0.00,0.00,VWS V14.01,2013-12-09 05:01:00,
2013-12-08 23:06:00,13.4,11.3,30.04,NNE,29,1.0,2.0,91,0.00,,---,0.00,0.00,VWS V14.01,2013-12-09 05:06:00,
2013-12-08 23:11:00,13.4,11.3,30.04,NNE,29,0.0,3.0,91,0.00,,---,0.00,0.00,VWS V14.01,2013-12-09 05:11:00,
2013-12-08 23:16:00,13.4,11.3,30.04,NNE,29,1.0,3.0,91,0.00,,---,0.00,0.00,VWS V14.01,2013-12-09 05:16:00,
2013-12-08 23:21:00,13.4,11.3,30.04,NNE,29,1.0,3.0,91,0.00,,---,0.00,0.00,VWS V14.01,2013-12-09 05:21:00,
2013-12-08 23:26:00,13.4,11.3,30.04,NNE,29,0.0,3.0,91,0.00,,---,0.00,0.00,VWS V14.01,2013-12-09 05:26:00,
2013-12-08 23:31:00,13.3,11.2,30.04,NNE,29,0.0,3.0,91,0.00,,---,0.00,0.00,VWS V14.01,2013-12-09 05:31:00,
2013-12-08 23:36:00,13.3,11.2,30.04,NNE,29,0.0,3.0,91,0.00,,---,0.00,0.00,VWS V14.01,2013-12-09 05:36:00,
2013-12-08 23:41:00,13.4,11.3,30.03,NNE,29,0.0,3.0,91,0.00,,---,0.00,0.00,VWS V14.01,2013-12-09 05:41:00,
2013-12-08 23:46:00,13.4,11.3,30.03,NNE,29,0.0,3.0,91,0.00,,---,0.00,0.00,VWS V14.01,2013-12-09 05:46:00,
2013-12-08 23:51:00,13.3,11.2,30.03,NNE,29,0.0,3.0,91,0.00,,---,0.00,0.00,VWS V14.01,2013-12-09 05:51:00,
2013-12-08 23:56:00,13.3,11.2,30.03,NNE,29,0.0,3.0,91,0.00,,---,0.00,0.00,VWS V14.01,2013-12-09 05:56:00,